Home > Weather > Gütersloh > Past weeks

Flag for Germany Weather for the Past 2 Weeks in Gütersloh, North Rhine-Westphalia, Germany

Now
39 °F

Sunny.


Feels Like: 32 °F
Forecast: 35 / 40 °F
Wind: 13 mph from Southeast

Location: Paderborn / Lippstadt

Current Time: Feb 13, 2016 at 4:41:54 PM

Latest Report: Feb 13, 2016 at 3:50 PM


Visibility: 10 mi

Pressure: 29.18 "Hg

Humidity: 61%

Dew point: 27 °F

Location of GüterslohLocation

Historic Weather in Gütersloh — Graph

°F

Gütersloh Temperature Yesterday

Maximum temperature yesterday: 41 °F (at 12:50 PM)
Minimum temperature yesterday: 30 °F (at 8:50 PM)
Average temperature yesterday: 35 °F

High & Low Weather Summary for the Past Weeks

 TemperatureHumidityPressure
High52 °F (Feb 6, 11:50 AM)100% (Jan 30, 8:50 PM)30.27 "Hg (Jan 30, 8:50 PM)
Low27 °F (Feb 13, 4:50 AM)53% (Feb 3, 3:20 PM)28.82 "Hg (Feb 9, 5:50 PM)
Average41 °F80%29.71 "Hg
* Reported Jan 29 3:20 PM — Feb 13 3:20 PM, Gütersloh, Weather by CustomWeather, © 2016

Note: Actual official high and low records may vary slightly from our data, if they occured in-between our weather recording intervals... More about our weather records

Advertising

Gütersloh Weather History for the Previous 24 Hours

 ConditionsComfort  
Time TempWeatherWind HumidityBarometerVisibility
3:20 PM
Sat, Feb 13
39 °FSunny.13 mph61%29.18 "Hg10 mi
2:50 PM39 °FSunny.10 mph61%29.21 "Hg10 mi
2:20 PM39 °FSunny.13 mph61%29.21 "Hg10 mi
1:50 PM41 °FPassing clouds.13 mph61%29.21 "HgN/A
1:20 PM39 °FSunny.10 mph61%29.24 "Hg10 mi
12:50 PM39 °FPassing clouds.8 mph61%29.24 "HgN/A
12:20 PM37 °FSunny.9 mph70%29.27 "Hg10 mi
11:50 AM37 °FPassing clouds.9 mph70%29.27 "HgN/A
11:20 AM36 °FPassing clouds.8 mph70%29.27 "HgN/A
10:50 AM34 °FPassing clouds.8 mph75%29.30 "HgN/A
10:20 AM34 °FSunny.9 mph75%29.30 "Hg10 mi
9:50 AM34 °FSunny.7 mph75%29.33 "Hg10 mi
9:20 AM32 °FSunny.6 mph80%29.33 "Hg10 mi
8:50 AM30 °FSunny.6 mph86%29.33 "Hg10 mi
8:20 AM30 °FPassing clouds.5 mph80%29.36 "HgN/A
7:50 AM30 °FPassing clouds.5 mph86%29.36 "HgN/A
7:20 AM28 °FClear.5 mph86%29.36 "Hg10 mi
6:50 AM28 °FClear.7 mph86%29.36 "Hg10 mi
6:20 AM28 °FClear.7 mph93%29.36 "Hg10 mi
5:50 AM28 °FClear.7 mph86%29.36 "Hg10 mi
5:20 AM27 °FClear.7 mph93%29.39 "Hg10 mi
4:50 AM27 °FClear.7 mph86%29.39 "Hg10 mi
4:20 AM30 °FClear.8 mph86%29.39 "Hg10 mi
3:50 AM28 °FClear.7 mph86%29.39 "Hg10 mi
3:20 AM30 °FClear.7 mph86%29.39 "Hg10 mi
2:50 AM28 °FClear.6 mph93%29.42 "Hg10 mi
2:20 AM28 °FClear.6 mph86%29.42 "Hg10 mi
1:50 AM28 °FClear.7 mph86%29.42 "Hg10 mi
1:20 AM30 °FClear.6 mph86%29.42 "Hg10 mi
12:50 AM28 °FClear.6 mph86%29.42 "Hg10 mi
11:50 PM
Fri, Feb 12
30 °FClear.6 mph86%29.42 "Hg10 mi
11:20 PM30 °FClear.6 mph86%29.45 "Hg10 mi
10:20 PM32 °FClear.5 mph80%29.45 "Hg10 mi
9:50 PM30 °FClear.6 mph80%29.45 "Hg10 mi
9:20 PM30 °FClear.5 mph86%29.45 "Hg10 mi
8:50 PM30 °FClear.5 mph80%29.45 "Hg10 mi
8:20 PM32 °FClear.5 mph80%29.45 "Hg10 mi
7:50 PM32 °FClear.5 mph80%29.45 "Hg10 mi
7:20 PM32 °FPassing clouds.5 mph75%29.45 "HgN/A
6:50 PM34 °FPassing clouds.3 mph70%29.45 "HgN/A
6:20 PM34 °FClear.5 mph70%29.45 "Hg10 mi
5:50 PM34 °FPassing clouds.6 mph70%29.45 "HgN/A
5:20 PM37 °FSunny.3 mph60%29.47 "Hg10 mi
4:50 PM37 °FPassing clouds.3 mph65%29.47 "HgN/A
4:20 PM39 °FScattered clouds.8 mph56%29.47 "HgN/A
Weather by CustomWeather, © 2016

See weather overviewHow to use our weather pages